Skip Page Navigation
NASA JPL Caltech
NASA Logo - Jet Propulsion Laboratory + View the NASA Portal
+ Center for Near-Earth Object Studies
JPL Home Earth Solar System Stars & Galaxies Technology
JPL Solar System Dynamics
BODIES ORBITS EPHEMERIDES TOOLS PHYSICAL DATA DISCOVERY FAQ SITE MAP
IMPORTANT: The SSD Announcement email list is now available. Major changes are coming in the near future, including possible hostname and/or URL changes. To be notified of such changes, subscribe to this email list.

Please visit this page for more details.


JPL Small-Body Database Browser
Search: [ help ]  
324398 (2006 SX88)
Classification: Main-belt Asteroid          SPK-ID: 2324398
Ephemeris | Orbit Diagram | Orbital Elements | Mission Design | Physical Parameters | Discovery Circumstances ]

[ show orbit diagram ]
Orbital Elements at Epoch 2459000.5 (2020-May-31.0) TDB
Reference: JPL 11 (heliocentric ecliptic J2000)
 Element Value Uncertainty (1-sigma)   Units 
e .1629917458564037 4.5251e-08  
a 2.533157197119406 2.2946e-08 au
q 2.1202734830322 1.1425e-07 au
i 2.894554804939534 2.2373e-05 deg
node 181.8750129064481 9.4286e-05 deg
peri 269.3454001018432 0.0002079 deg
M 81.62248422346899 0.00016843 deg
tp 2458666.613433280807
(2019-Jul-02.11343328)
0.00068806 TDB
period 1472.623201345155
4.03
2.0009e-05
5.478e-08
d
yr
n .2444617195160046 3.3216e-09 deg/d
Q 2.946040911206612 2.6686e-08 au
  Orbit Determination Parameters
   # obs. used (total)      156  
   data-arc span      6322 days (17.31 yr)  
   first obs. used      2002-10-08  
   last obs. used      2020-01-29  
   planetary ephem.      DE431  
   SB-pert. ephem.      SB431-N16  
   condition code      0  
   norm. resid. RMS      .57472  
   source      ORB  
   producer      Otto Matic  
   solution date      2020-Feb-25 20:09:57  

Additional Information
 Earth MOID = 1.13922 au 
 Jupiter MOID = 2.2498 au 
 T_jup = 3.429 
[ show covariance matrix ]

Ephemeris | Orbit Diagram | Orbital Elements | Mission Design | Physical Parameters | Discovery Circumstances ]

Physical Parameter Table
Parameter Symbol Value Units Sigma Reference Notes
absolute magnitude H 17.8   n/a MPO455391  

324398 (2006 SX88)          Discovered 2006-Sep-18 by Spacewatch at Kitt Peak
Reference: 20120406/Numbers.arcLast Updated: 2012-04-09
Ephemeris | Orbit Diagram | Orbital Elements | Mission Design | Physical Parameters | Discovery Circumstances ]
ABOUT SSD CREDITS/AWARDS PRIVACY/COPYRIGHT GLOSSARY LINKS
FirstGov 2020-Jun-06 09:07 UT
(server date/time)  
NASA Home Page
Site Manager:   Ryan S. Park
Webmaster  Alan B. Chamberlin